Time,TemperatureF,DewpointF,PressureIn,WindDirection,WindDirectionDegrees,WindSpeedMPH,WindSpeedGustMPH,Humidity,HourlyPrecipIn,Conditions,Clouds,dailyrainin,SolarRadiationWatts/m^2,SoftwareType,DateUTC
2013-10-04 00:25:00,36.0,26.0,-100.00,NE,37,7.0,13.0,68,0.00,,,0.00,0.000000,,2013-10-04 07:25:00,
2013-10-04 00:34:00,36.0,26.0,-100.00,NE,37,7.0,13.0,68,0.00,,,0.00,0.000000,,2013-10-04 07:34:00,
2013-10-04 00:44:00,36.0,26.0,-100.00,NE,37,7.0,13.0,68,0.00,,,0.00,0.000000,,2013-10-04 07:44:00,
2013-10-04 00:54:00,36.0,26.0,-100.00,NE,37,7.0,13.0,68,0.00,,,0.00,0.000000,,2013-10-04 07:54:00,
2013-10-04 01:25:00,35.0,27.0,-100.00,NE,39,7.0,13.0,71,0.00,,,0.00,0.000000,,2013-10-04 08:25:00,
2013-10-04 01:34:00,35.0,27.0,-100.00,NE,39,7.0,13.0,71,0.00,,,0.00,0.000000,,2013-10-04 08:34:00,
2013-10-04 01:44:00,35.0,27.0,-100.00,NE,39,7.0,13.0,71,0.00,,,0.00,0.000000,,2013-10-04 08:44:00,
2013-10-04 01:54:00,35.0,27.0,-100.00,NE,39,7.0,13.0,71,0.00,,,0.00,0.000000,,2013-10-04 08:54:00,
2013-10-04 01:56:00,33.0,26.0,-100.00,NE,38,4.0,10.0,76,0.00,,,0.00,0.000000,,2013-10-04 08:56:00,
2013-10-04 02:25:00,33.0,26.0,-100.00,NE,38,4.0,10.0,76,0.00,,,0.00,0.000000,,2013-10-04 09:25:00,
2013-10-04 02:36:00,33.0,26.0,-100.00,NE,38,4.0,10.0,76,0.00,,,0.00,0.000000,,2013-10-04 09:36:00,
2013-10-04 02:46:00,33.0,26.0,-100.00,NE,38,4.0,10.0,76,0.00,,,0.00,0.000000,,2013-10-04 09:46:00,
2013-10-04 02:56:00,33.0,27.0,-100.00,NE,39,6.0,11.0,77,0.00,,,0.00,0.000000,,2013-10-04 09:56:00,
2013-10-04 03:27:00,33.0,27.0,-100.00,NE,39,6.0,11.0,77,0.00,,,0.00,0.000000,,2013-10-04 10:27:00,
2013-10-04 03:37:00,33.0,27.0,-100.00,NE,39,6.0,11.0,77,0.00,,,0.00,0.000000,,2013-10-04 10:37:00,
2013-10-04 03:47:00,33.0,27.0,-100.00,NE,39,6.0,11.0,77,0.00,,,0.00,0.000000,,2013-10-04 10:47:00,
2013-10-04 04:27:00,32.0,27.0,-100.00,NE,39,5.0,10.0,80,0.00,,,0.00,0.000000,,2013-10-04 11:27:00,
2013-10-04 04:37:00,32.0,27.0,-100.00,NE,39,5.0,10.0,80,0.00,,,0.00,0.000000,,2013-10-04 11:37:00,
2013-10-04 04:46:00,32.0,27.0,-100.00,NE,39,5.0,10.0,80,0.00,,,0.00,0.000000,,2013-10-04 11:46:00,
2013-10-04 04:55:00,32.0,27.0,-100.00,NE,39,5.0,10.0,80,0.00,,,0.00,0.000000,,2013-10-04 11:55:00,
2013-10-04 05:27:00,31.0,26.0,-100.00,NNE,33,5.0,8.0,83,0.00,,,0.00,0.000000,,2013-10-04 12:27:00,
2013-10-04 05:36:00,31.0,26.0,-100.00,NNE,33,5.0,8.0,83,0.00,,,0.00,0.000000,,2013-10-04 12:36:00,
2013-10-04 05:46:00,31.0,26.0,-100.00,NNE,33,5.0,8.0,83,0.00,,,0.00,0.000000,,2013-10-04 12:46:00,
2013-10-04 05:55:00,31.0,26.0,-100.00,NNE,33,5.0,8.0,83,0.00,,,0.00,0.000000,,2013-10-04 12:55:00,
2013-10-04 06:26:00,29.0,26.0,-100.00,NE,39,4.0,7.0,87,0.00,,,0.00,0.000000,,2013-10-04 13:26:00,
2013-10-04 06:36:00,29.0,26.0,-100.00,NE,39,4.0,7.0,87,0.00,,,0.00,0.000000,,2013-10-04 13:36:00,
2013-10-04 06:46:00,29.0,26.0,-100.00,NE,39,4.0,7.0,87,0.00,,,0.00,0.000000,,2013-10-04 13:46:00,
2013-10-04 06:55:00,29.0,26.0,-100.00,NE,39,4.0,7.0,87,0.00,,,0.00,0.000000,,2013-10-04 13:55:00,
2013-10-04 07:26:00,29.0,26.0,-100.00,NE,38,3.0,7.0,89,0.00,,,0.00,0.000000,,2013-10-04 14:26:00,
2013-10-04 07:36:00,29.0,26.0,-100.00,NE,38,3.0,7.0,89,0.00,,,0.00,0.000000,,2013-10-04 14:36:00,
2013-10-04 07:46:00,29.0,26.0,-100.00,NE,38,3.0,7.0,89,0.00,,,0.00,0.000000,,2013-10-04 14:46:00,
2013-10-04 07:55:00,29.0,26.0,-100.00,NE,38,3.0,7.0,89,0.00,,,0.00,0.000000,,2013-10-04 14:55:00,
2013-10-04 07:56:00,29.0,26.0,-100.00,NE,54,3.0,4.0,89,0.00,,,0.00,13.000000,,2013-10-04 14:56:00,
2013-10-04 08:27:00,29.0,26.0,-100.00,NE,54,3.0,4.0,89,0.00,,,0.00,13.000000,,2013-10-04 15:27:00,
2013-10-04 08:37:00,29.0,26.0,-100.00,NE,54,3.0,4.0,89,0.00,,,0.00,13.000000,,2013-10-04 15:37:00,
2013-10-04 08:47:00,29.0,26.0,-100.00,NE,54,3.0,4.0,89,0.00,,,0.00,13.000000,,2013-10-04 15:47:00,
2013-10-04 08:56:00,36.0,28.0,-100.00,NE,49,6.0,10.0,72,0.00,,,0.00,174.000000,,2013-10-04 15:56:00,
2013-10-04 09:27:00,36.0,28.0,-100.00,NE,49,6.0,10.0,72,0.00,,,0.00,174.000000,,2013-10-04 16:27:00,
2013-10-04 09:37:00,36.0,28.0,-100.00,NE,49,6.0,10.0,72,0.00,,,0.00,174.000000,,2013-10-04 16:37:00,
2013-10-04 09:47:00,36.0,28.0,-100.00,NE,49,6.0,10.0,72,0.00,,,0.00,174.000000,,2013-10-04 16:47:00,
2013-10-04 10:27:00,42.0,30.0,-100.00,NE,36,6.0,12.0,62,0.00,,,0.00,416.000000,,2013-10-04 17:27:00,
2013-10-04 11:27:00,46.0,29.0,-100.00,NE,43,5.0,12.0,52,0.00,,,0.00,545.000000,,2013-10-04 18:27:00,
2013-10-04 11:38:00,46.0,29.0,-100.00,NE,43,5.0,12.0,52,0.00,,,0.00,545.000000,,2013-10-04 18:38:00,
2013-10-04 11:47:00,46.0,29.0,-100.00,NE,43,5.0,12.0,52,0.00,,,0.00,545.000000,,2013-10-04 18:47:00,
2013-10-04 11:55:00,46.0,29.0,-100.00,NE,43,5.0,12.0,52,0.00,,,0.00,545.000000,,2013-10-04 18:55:00,
2013-10-04 12:22:00,51.0,29.0,-100.00,NE,37,5.0,11.0,42,0.00,,,0.00,649.000000,,2013-10-04 19:22:00,
2013-10-04 12:32:00,51.0,29.0,-100.00,NE,37,5.0,11.0,42,0.00,,,0.00,649.000000,,2013-10-04 19:32:00,
2013-10-04 12:43:00,51.0,29.0,-100.00,NE,37,5.0,11.0,42,0.00,,,0.00,649.000000,,2013-10-04 19:43:00,
2013-10-04 12:52:00,51.0,29.0,-100.00,NE,37,5.0,11.0,42,0.00,,,0.00,649.000000,,2013-10-04 19:52:00,
2013-10-04 13:22:00,55.0,23.0,-100.00,ESE,109,6.0,13.0,29,0.00,,,0.00,814.000000,,2013-10-04 20:22:00,
2013-10-04 13:32:00,55.0,23.0,-100.00,ESE,109,6.0,13.0,29,0.00,,,0.00,814.000000,,2013-10-04 20:32:00,
2013-10-04 13:42:00,55.0,23.0,-100.00,ESE,109,6.0,13.0,29,0.00,,,0.00,814.000000,,2013-10-04 20:42:00,
2013-10-04 13:52:00,55.0,23.0,-100.00,ESE,109,6.0,13.0,29,0.00,,,0.00,814.000000,,2013-10-04 20:52:00,
2013-10-04 14:22:00,58.0,23.0,-100.00,ENE,65,4.0,14.0,26,0.00,,,0.00,822.000000,,2013-10-04 21:22:00,
2013-10-04 14:33:00,58.0,23.0,-100.00,ENE,65,4.0,14.0,26,0.00,,,0.00,822.000000,,2013-10-04 21:33:00,
2013-10-04 14:43:00,58.0,23.0,-100.00,ENE,65,4.0,14.0,26,0.00,,,0.00,822.000000,,2013-10-04 21:43:00,
2013-10-04 14:54:00,58.0,23.0,-100.00,ENE,65,4.0,14.0,26,0.00,,,0.00,822.000000,,2013-10-04 21:54:00,
2013-10-04 15:23:00,60.0,23.0,-100.00,East,85,5.0,10.0,24,0.00,,,0.00,764.000000,,2013-10-04 22:23:00,
2013-10-04 15:33:00,60.0,23.0,-100.00,East,85,5.0,10.0,24,0.00,,,0.00,764.000000,,2013-10-04 22:33:00,
2013-10-04 15:42:00,60.0,23.0,-100.00,East,85,5.0,10.0,24,0.00,,,0.00,764.000000,,2013-10-04 22:42:00,
2013-10-04 15:52:00,60.0,23.0,-100.00,East,85,5.0,10.0,24,0.00,,,0.00,764.000000,,2013-10-04 22:52:00,
2013-10-04 16:22:00,62.0,28.0,-100.00,West,266,5.0,10.0,27,0.00,,,0.00,639.000000,,2013-10-04 23:22:00,
2013-10-04 16:33:00,62.0,28.0,-100.00,West,266,5.0,10.0,27,0.00,,,0.00,639.000000,,2013-10-04 23:33:00,
2013-10-04 16:42:00,62.0,28.0,-100.00,West,266,5.0,10.0,27,0.00,,,0.00,639.000000,,2013-10-04 23:42:00,
2013-10-04 16:53:00,62.0,28.0,-100.00,West,266,5.0,10.0,27,0.00,,,0.00,639.000000,,2013-10-04 23:53:00,
2013-10-04 17:22:00,62.0,29.0,-100.00,West,275,5.0,10.0,29,0.00,,,0.00,465.000000,,2013-10-05 00:22:00,
2013-10-04 17:32:00,62.0,29.0,-100.00,West,275,5.0,10.0,29,0.00,,,0.00,465.000000,,2013-10-05 00:32:00,
2013-10-04 17:42:00,62.0,29.0,-100.00,West,275,5.0,10.0,29,0.00,,,0.00,465.000000,,2013-10-05 00:42:00,
2013-10-04 17:52:00,62.0,29.0,-100.00,West,275,5.0,10.0,29,0.00,,,0.00,465.000000,,2013-10-05 00:52:00,
2013-10-04 18:21:00,58.0,27.0,-100.00,WNW,291,5.0,9.0,30,0.00,,,0.00,257.000000,,2013-10-05 01:21:00,
2013-10-04 18:32:00,58.0,27.0,-100.00,WNW,291,5.0,9.0,30,0.00,,,0.00,257.000000,,2013-10-05 01:32:00,
2013-10-04 18:43:00,58.0,27.0,-100.00,WNW,291,5.0,9.0,30,0.00,,,0.00,257.000000,,2013-10-05 01:43:00,
2013-10-04 18:52:00,58.0,27.0,-100.00,WNW,291,5.0,9.0,30,0.00,,,0.00,257.000000,,2013-10-05 01:52:00,
2013-10-04 19:22:00,52.0,30.0,-100.00,WSW,252,2.0,6.0,42,0.00,,,0.00,53.000000,,2013-10-05 02:22:00,
2013-10-04 19:32:00,52.0,30.0,-100.00,WSW,252,2.0,6.0,42,0.00,,,0.00,53.000000,,2013-10-05 02:32:00,
2013-10-04 19:42:00,52.0,30.0,-100.00,WSW,252,2.0,6.0,42,0.00,,,0.00,53.000000,,2013-10-05 02:42:00,
2013-10-04 19:52:00,52.0,30.0,-100.00,WSW,252,2.0,6.0,42,0.00,,,0.00,53.000000,,2013-10-05 02:52:00,
2013-10-04 20:23:00,47.0,27.0,-100.00,ENE,58,3.0,6.0,46,0.00,,,0.00,0.000000,,2013-10-05 03:23:00,
2013-10-04 20:34:00,47.0,27.0,-100.00,ENE,58,3.0,6.0,46,0.00,,,0.00,0.000000,,2013-10-05 03:34:00,
2013-10-04 20:45:00,47.0,27.0,-100.00,ENE,58,3.0,6.0,46,0.00,,,0.00,0.000000,,2013-10-05 03:45:00,
2013-10-04 20:55:00,47.0,27.0,-100.00,ENE,58,3.0,6.0,46,0.00,,,0.00,0.000000,,2013-10-05 03:55:00,
2013-10-04 21:24:00,42.0,28.0,-100.00,East,79,5.0,7.0,58,0.00,,,0.00,0.000000,,2013-10-05 04:24:00,
2013-10-04 21:33:00,42.0,28.0,-100.00,East,79,5.0,7.0,58,0.00,,,0.00,0.000000,,2013-10-05 04:33:00,
2013-10-04 21:43:00,42.0,28.0,-100.00,East,79,5.0,7.0,58,0.00,,,0.00,0.000000,,2013-10-05 04:43:00,
2013-10-04 21:53:00,42.0,28.0,-100.00,East,79,5.0,7.0,58,0.00,,,0.00,0.000000,,2013-10-05 04:53:00,
2013-10-04 22:22:00,42.0,25.0,-100.00,ENE,62,6.0,9.0,51,0.00,,,0.00,0.000000,,2013-10-05 05:22:00,
2013-10-04 22:34:00,42.0,25.0,-100.00,ENE,62,6.0,9.0,51,0.00,,,0.00,0.000000,,2013-10-05 05:34:00,
2013-10-04 22:43:00,42.0,25.0,-100.00,ENE,62,6.0,9.0,51,0.00,,,0.00,0.000000,,2013-10-05 05:43:00,
2013-10-04 22:52:00,42.0,25.0,-100.00,ENE,62,6.0,9.0,51,0.00,,,0.00,0.000000,,2013-10-05 05:52:00,
2013-10-04 23:22:00,41.0,24.0,-100.00,NE,45,7.0,12.0,51,0.00,,,0.00,0.000000,,2013-10-05 06:22:00,
2013-10-04 23:32:00,41.0,24.0,-100.00,NE,45,7.0,12.0,51,0.00,,,0.00,0.000000,,2013-10-05 06:32:00,
2013-10-04 23:42:00,41.0,24.0,-100.00,NE,45,7.0,12.0,51,0.00,,,0.00,0.000000,,2013-10-05 06:42:00,
2013-10-04 23:52:00,41.0,24.0,-100.00,NE,45,7.0,12.0,51,0.00,,,0.00,0.000000,,2013-10-05 06:52:00,